GEFSNE_prec_meanprecacc_018.txt.gz
Total_Precipitation_Accumulation
0.24 0.31 0.32 0.34 0.37 0.37 0.35 0.35 0.37 0.38 0.40 0.34 0.28 0.25 0.22 0.21 0.19 0.12 0.07 0.03 0.01 0.01 0.01 0.01 0.01 0.01 0.02 0.03 0.06 0.09 0.14 0.20 0.26 0.33 0.43 0.50 0.55 0.61
0.38 0.43 0.43 0.45 0.44 0.38 0.36 0.36 0.35 0.37 0.34 0.24 0.21 0.24 0.21 0.15 0.12 0.08 0.04 0.02 0.01 0.01 0.00 0.00 0.01 0.03 0.03 0.02 0.01 0.02 0.03 0.05 0.06 0.09 0.14 0.21 0.29 0.36
0.51 0.56 0.58 0.56 0.51 0.40 0.34 0.31 0.28 0.28 0.24 0.16 0.12 0.14 0.13 0.09 0.07 0.04 0.02 0.01 0.01 0.01 0.01 0.00 0.01 0.02 0.02 0.02 0.01 0.01 0.02 0.03 0.03 0.04 0.05 0.07 0.08 0.12
0.55 0.64 0.66 0.57 0.46 0.37 0.32 0.28 0.23 0.20 0.17 0.14 0.10 0.09 0.09 0.08 0.06 0.04 0.03 0.01 0.02 0.04 0.03 0.01 0.02 0.01 0.00 0.01 0.01 0.01 0.01 0.01 0.02 0.03 0.05 0.08 0.07 0.06
0.56 0.57 0.55 0.52 0.43 0.35 0.27 0.21 0.16 0.14 0.12 0.10 0.09 0.07 0.06 0.05 0.04 0.04 0.02 0.02 0.01 0.01 0.04 0.04 0.04 0.01 0.00 0.00 0.00 0.01 0.01 0.01 0.02 0.03 0.04 0.08 0.09 0.09
0.47 0.44 0.42 0.39 0.37 0.33 0.25 0.19 0.14 0.12 0.10 0.08 0.07 0.06 0.04 0.03 0.02 0.02 0.01 0.00 0.00 0.00 0.03 0.08 0.08 0.03 0.01 0.00 0.00 0.00 0.01 0.01 0.02 0.04 0.04 0.05 0.11 0.16
0.30 0.26 0.26 0.30 0.32 0.30 0.23 0.16 0.13 0.12 0.10 0.07 0.05 0.04 0.02 0.02 0.01 0.00 0.00 0.00 0.00 0.00 0.01 0.03 0.02 0.01 0.01 0.00 0.00 0.00 0.01 0.01 0.02 0.02 0.03 0.05 0.09 0.19
0.13 0.12 0.11 0.13 0.17 0.19 0.17 0.11 0.07 0.06 0.06 0.05 0.04 0.03 0.03 0.02 0.01 0.00 0.00 0.00 0.00 0.00 0.00 0.00 0.00 0.00 0.00 0.00 0.00 0.00 0.00 0.01 0.02 0.02 0.02 0.02 0.04 0.15
0.04 0.04 0.03 0.04 0.05 0.05 0.04 0.03 0.03 0.02 0.02 0.03 0.02 0.02 0.01 0.01 0.00 0.00 0.00 0.00 0.01 0.00 0.00 0.00 0.00 0.00 0.00 0.00 0.00 0.00 0.00 0.01 0.02 0.04 0.05 0.02 0.01 0.04
0.01 0.01 0.01 0.02 0.02 0.02 0.02 0.01 0.01 0.00 0.01 0.01 0.01 0.01 0.00 0.00 0.00 0.00 0.00 0.00 0.00 0.00 0.00 0.00 0.00 0.01 0.01 0.02 0.00 0.00 0.00 0.00 0.01 0.07 0.18 0.20 0.10 0.05
0.00 0.00 0.00 0.00 0.01 0.01 0.01 0.01 0.00 0.00 0.00 0.00 0.00 0.00 0.00 0.00 0.00 0.00 0.00 0.00 0.00 0.00 0.00 0.00 0.00 0.01 0.02 0.02 0.02 0.01 0.00 0.00 0.01 0.06 0.21 0.45 0.51 0.32
0.00 0.00 0.00 0.00 0.00 0.00 0.00 0.00 0.00 0.00 0.00 0.00 0.00 0.00 0.00 0.00 0.00 0.00 0.00 0.00 0.00 0.01 0.00 0.00 0.00 0.01 0.02 0.02 0.02 0.02 0.01 0.00 0.01 0.06 0.25 0.59 0.71 0.63
0.00 0.00 0.00 0.00 0.00 0.00 0.00 0.01 0.00 0.00 0.00 0.00 0.00 0.00 0.00 0.00 0.00 0.00 0.00 0.00 0.00 0.00 0.00 0.00 0.00 0.00 0.00 0.01 0.01 0.01 0.01 0.00 0.01 0.03 0.12 0.40 0.68 0.71
0.00 0.00 0.00 0.00 0.00 0.00 0.00 0.00 0.00 0.00 0.00 0.00 0.00 0.00 0.00 0.00 0.00 0.00 0.00 0.00 0.00 0.01 0.00 0.00 0.00 0.00 0.00 0.00 0.01 0.01 0.02 0.01 0.03 0.04 0.05 0.14 0.32 0.61
0.00 0.00 0.00 0.00 0.00 0.00 0.00 0.00 0.00 0.00 0.00 0.00 0.00 0.00 0.00 0.00 0.00 0.00 0.00 0.00 0.00 0.00 0.00 0.00 0.00 0.00 0.00 0.01 0.02 0.02 0.02 0.01 0.02 0.05 0.07 0.10 0.21 0.39
0.00 0.00 0.00 0.00 0.00 0.00 0.00 0.00 0.00 0.00 0.00 0.00 0.00 0.00 0.00 0.00 0.00 0.00 0.00 0.00 0.00 0.00 0.00 0.00 0.00 0.00 0.00 0.00 0.00 0.01 0.01 0.01 0.01 0.03 0.07 0.13 0.23 0.32
0.00 0.00 0.00 0.00 0.00 0.00 0.00 0.00 0.00 0.00 0.00 0.00 0.00 0.00 0.00 0.00 0.00 0.00 0.00 0.00 0.00 0.00 0.00 0.00 0.00 0.00 0.00 0.00 0.00 0.00 0.00 0.00 0.00 0.01 0.01 0.05 0.15 0.21
0.00 0.00 0.00 0.00 0.00 0.00 0.00 0.00 0.00 0.00 0.00 0.00 0.00 0.00 0.00 0.00 0.00 0.00 0.00 0.00 0.00 0.00 0.00 0.00 0.00 0.00 0.00 0.00 0.00 0.00 0.00 0.00 0.00 0.00 0.00 0.00 0.03 0.10
0.00 0.00 0.00 0.00 0.00 0.00 0.00 0.00 0.00 0.00 0.00 0.00 0.00 0.00 0.00 0.00 0.00 0.00 0.00 0.00 0.00 0.00 0.00 0.00 0.00 0.00 0.00 0.00 0.00 0.00 0.00 0.00 0.00 0.00 0.00 0.00 0.01 0.02
0.00 0.00 0.00 0.00 0.00 0.00 0.00 0.00 0.00 0.00 0.00 0.00 0.00 0.00 0.00 0.00 0.00 0.00 0.00 0.00 0.00 0.00 0.00 0.00 0.00 0.00 0.00 0.00 0.00 0.00 0.00 0.00 0.00 0.00 0.00 0.00 0.00 0.00
0.00 0.00 0.00 0.00 0.00 0.00 0.00 0.00 0.00 0.00 0.00 0.00 0.00 0.00 0.00 0.00 0.00 0.00 0.00 0.00 0.00 0.00 0.00 0.00 0.00 0.00 0.00 0.00 0.00 0.00 0.00 0.00 0.00 0.00 0.00 0.00 0.00 0.00
0.00 0.00 0.00 0.00 0.00 0.00 0.00 0.00 0.00 0.00 0.00 0.00 0.00 0.00 0.00 0.00 0.00 0.00 0.00 0.00 0.00 0.00 0.00 0.00 0.00 0.00 0.00 0.00 0.00 0.00 0.00 0.00 0.00 0.00 0.00 0.00 0.00 0.00
0.00 0.00 0.00 0.00 0.00 0.00 0.00 0.00 0.00 0.00 0.00 0.00 0.00 0.00 0.00 0.00 0.00 0.00 0.00 0.00 0.00 0.00 0.00 0.00 0.00 0.00 0.00 0.00 0.00 0.00 0.00 0.00 0.00 0.00 0.00 0.00 0.00 0.00

GEFSNE_prec_meanprecacc_024.txt.gz
Total_Precipitation_Accumulation
0.29 0.38 0.41 0.43 0.50 0.54 0.55 0.58 0.58 0.57 0.61 0.56 0.40 0.35 0.33 0.30 0.23 0.18 0.09 0.03 0.02 0.01 0.01 0.01 0.02 0.02 0.03 0.04 0.08 0.13 0.19 0.27 0.34 0.43 0.53 0.61 0.67 0.77
0.43 0.50 0.52 0.55 0.57 0.55 0.56 0.59 0.59 0.60 0.59 0.46 0.33 0.33 0.29 0.21 0.16 0.13 0.07 0.04 0.02 0.01 0.01 0.01 0.02 0.03 0.04 0.03 0.02 0.03 0.04 0.06 0.09 0.13 0.21 0.30 0.39 0.51
0.54 0.61 0.65 0.67 0.66 0.58 0.55 0.53 0.53 0.56 0.50 0.33 0.22 0.22 0.19 0.14 0.11 0.09 0.06 0.04 0.03 0.03 0.02 0.01 0.01 0.02 0.03 0.03 0.02 0.02 0.03 0.03 0.04 0.05 0.08 0.11 0.14 0.19
0.58 0.69 0.72 0.66 0.58 0.53 0.51 0.49 0.49 0.50 0.44 0.29 0.21 0.18 0.15 0.15 0.14 0.11 0.08 0.05 0.04 0.06 0.04 0.02 0.02 0.02 0.01 0.01 0.01 0.01 0.01 0.02 0.02 0.03 0.06 0.09 0.08 0.08
0.59 0.60 0.58 0.58 0.52 0.46 0.41 0.38 0.38 0.43 0.38 0.26 0.20 0.16 0.14 0.13 0.13 0.13 0.10 0.07 0.05 0.04 0.06 0.05 0.04 0.02 0.00 0.00 0.00 0.01 0.01 0.01 0.02 0.03 0.04 0.08 0.09 0.09
0.49 0.46 0.43 0.41 0.44 0.43 0.37 0.32 0.30 0.30 0.27 0.21 0.18 0.15 0.14 0.14 0.12 0.11 0.09 0.07 0.04 0.02 0.04 0.09 0.08 0.03 0.01 0.00 0.00 0.00 0.01 0.01 0.02 0.04 0.04 0.05 0.11 0.16
0.33 0.28 0.28 0.32 0.35 0.37 0.33 0.28 0.27 0.25 0.23 0.21 0.17 0.15 0.14 0.15 0.13 0.09 0.07 0.06 0.03 0.02 0.03 0.04 0.04 0.02 0.01 0.00 0.00 0.00 0.01 0.01 0.02 0.02 0.03 0.05 0.09 0.19
0.19 0.15 0.12 0.14 0.19 0.24 0.24 0.21 0.21 0.19 0.20 0.20 0.19 0.17 0.16 0.15 0.12 0.08 0.06 0.04 0.04 0.05 0.06 0.06 0.04 0.02 0.00 0.00 0.00 0.00 0.00 0.01 0.02 0.02 0.02 0.02 0.04 0.15
0.11 0.09 0.06 0.06 0.08 0.08 0.08 0.08 0.11 0.12 0.14 0.16 0.18 0.16 0.15 0.13 0.09 0.08 0.07 0.06 0.04 0.03 0.04 0.04 0.02 0.01 0.00 0.00 0.00 0.00 0.00 0.01 0.02 0.04 0.05 0.02 0.01 0.04
0.07 0.05 0.04 0.04 0.04 0.04 0.05 0.05 0.05 0.06 0.08 0.12 0.13 0.12 0.10 0.08 0.07 0.07 0.06 0.05 0.03 0.02 0.02 0.03 0.02 0.01 0.01 0.02 0.00 0.00 0.00 0.00 0.01 0.07 0.18 0.20 0.10 0.05
0.06 0.04 0.04 0.03 0.02 0.02 0.03 0.04 0.04 0.03 0.04 0.05 0.06 0.06 0.05 0.04 0.03 0.02 0.01 0.01 0.01 0.01 0.01 0.02 0.02 0.03 0.03 0.03 0.02 0.01 0.00 0.00 0.01 0.06 0.21 0.45 0.51 0.32
0.08 0.04 0.02 0.02 0.01 0.01 0.03 0.02 0.02 0.01 0.01 0.01 0.01 0.01 0.01 0.01 0.01 0.01 0.01 0.01 0.00 0.01 0.00 0.01 0.01 0.02 0.05 0.03 0.02 0.02 0.01 0.00 0.01 0.06 0.25 0.59 0.71 0.63
0.07 0.04 0.01 0.00 0.00 0.00 0.02 0.03 0.01 0.00 0.00 0.00 0.00 0.00 0.00 0.00 0.00 0.00 0.00 0.00 0.00 0.00 0.00 0.00 0.01 0.01 0.02 0.01 0.01 0.01 0.01 0.01 0.01 0.03 0.12 0.40 0.68 0.71
0.08 0.03 0.01 0.01 0.00 0.00 0.01 0.01 0.00 0.00 0.00 0.00 0.00 0.00 0.00 0.00 0.00 0.00 0.00 0.00 0.00 0.01 0.00 0.00 0.00 0.00 0.00 0.01 0.01 0.01 0.02 0.01 0.03 0.04 0.05 0.14 0.32 0.61
0.08 0.03 0.01 0.00 0.00 0.00 0.00 0.00 0.00 0.00 0.00 0.00 0.00 0.00 0.00 0.00 0.00 0.00 0.00 0.00 0.00 0.00 0.00 0.00 0.00 0.00 0.00 0.01 0.02 0.02 0.02 0.01 0.02 0.05 0.07 0.10 0.21 0.39
0.09 0.02 0.01 0.00 0.00 0.00 0.00 0.00 0.00 0.00 0.00 0.00 0.00 0.00 0.00 0.00 0.00 0.00 0.00 0.00 0.00 0.00 0.00 0.00 0.00 0.00 0.00 0.00 0.00 0.01 0.01 0.01 0.01 0.03 0.07 0.13 0.23 0.32
0.11 0.02 0.00 0.00 0.00 0.00 0.00 0.00 0.00 0.00 0.00 0.00 0.00 0.00 0.00 0.00 0.00 0.00 0.00 0.00 0.00 0.00 0.00 0.00 0.00 0.00 0.00 0.00 0.00 0.00 0.00 0.00 0.00 0.01 0.01 0.05 0.15 0.21
0.11 0.02 0.00 0.00 0.00 0.00 0.00 0.00 0.00 0.00 0.00 0.00 0.00 0.00 0.00 0.00 0.00 0.00 0.00 0.00 0.00 0.00 0.00 0.00 0.00 0.00 0.00 0.00 0.00 0.00 0.00 0.00 0.00 0.00 0.00 0.00 0.03 0.10
0.08 0.02 0.00 0.00 0.00 0.00 0.00 0.00 0.00 0.00 0.00 0.00 0.00 0.00 0.00 0.00 0.00 0.00 0.00 0.00 0.00 0.00 0.00 0.00 0.00 0.00 0.00 0.00 0.00 0.00 0.00 0.00 0.00 0.00 0.00 0.00 0.01 0.02
0.05 0.01 0.00 0.00 0.00 0.00 0.00 0.00 0.00 0.00 0.00 0.00 0.00 0.00 0.00 0.00 0.00 0.00 0.00 0.00 0.00 0.00 0.00 0.00 0.00 0.00 0.00 0.00 0.00 0.00 0.00 0.00 0.00 0.00 0.00 0.00 0.00 0.00
0.02 0.00 0.00 0.00 0.00 0.00 0.00 0.00 0.00 0.00 0.00 0.00 0.00 0.00 0.00 0.00 0.00 0.00 0.00 0.00 0.00 0.00 0.00 0.00 0.00 0.00 0.00 0.00 0.00 0.00 0.00 0.00 0.00 0.00 0.00 0.00 0.00 0.00
0.01 0.00 0.00 0.00 0.00 0.00 0.00 0.00 0.00 0.00 0.00 0.00 0.00 0.00 0.00 0.00 0.00 0.00 0.00 0.00 0.00 0.00 0.00 0.00 0.00 0.00 0.00 0.00 0.00 0.00 0.00 0.00 0.00 0.00 0.00 0.00 0.00 0.00
0.01 0.00 0.00 0.00 0.00 0.00 0.00 0.00 0.00 0.00 0.00 0.00 0.00 0.00 0.00 0.00 0.00 0.00 0.00 0.00 0.00 0.00 0.00 0.00 0.00 0.00 0.00 0.00 0.00 0.00 0.00 0.00 0.00 0.00 0.00 0.00 0.00 0.00

GEFSNE_prec_meanprecacc_030.txt.gz
Total_Precipitation_Accumulation
0.29 0.38 0.41 0.44 0.50 0.54 0.56 0.60 0.60 0.58 0.63 0.60 0.48 0.44 0.45 0.42 0.33 0.25 0.13 0.06 0.04 0.02 0.03 0.03 0.03 0.03 0.04 0.05 0.09 0.14 0.21 0.29 0.38 0.49 0.60 0.72 0.80 0.90
0.43 0.50 0.52 0.55 0.58 0.55 0.57 0.61 0.62 0.63 0.62 0.52 0.41 0.42 0.39 0.29 0.23 0.17 0.09 0.05 0.03 0.02 0.01 0.01 0.02 0.04 0.04 0.03 0.03 0.03 0.05 0.07 0.10 0.16 0.25 0.37 0.49 0.64
0.55 0.61 0.65 0.67 0.66 0.58 0.56 0.55 0.56 0.62 0.54 0.38 0.30 0.30 0.27 0.21 0.17 0.12 0.07 0.04 0.03 0.03 0.02 0.01 0.01 0.02 0.03 0.03 0.02 0.02 0.03 0.04 0.05 0.06 0.09 0.14 0.18 0.26
0.59 0.69 0.72 0.66 0.58 0.53 0.51 0.51 0.53 0.58 0.50 0.34 0.28 0.26 0.24 0.22 0.19 0.15 0.10 0.06 0.05 0.06 0.04 0.02 0.02 0.02 0.01 0.01 0.01 0.01 0.01 0.02 0.02 0.03 0.06 0.09 0.10 0.10
0.60 0.60 0.58 0.58 0.52 0.46 0.42 0.39 0.42 0.52 0.47 0.32 0.27 0.23 0.23 0.23 0.20 0.17 0.13 0.10 0.06 0.06 0.07 0.06 0.05 0.02 0.01 0.01 0.01 0.01 0.01 0.01 0.02 0.03 0.04 0.08 0.09 0.09
0.51 0.47 0.44 0.41 0.44 0.43 0.37 0.33 0.34 0.35 0.33 0.28 0.24 0.24 0.24 0.23 0.19 0.17 0.14 0.10 0.06 0.04 0.05 0.09 0.08 0.03 0.01 0.00 0.00 0.00 0.01 0.01 0.03 0.04 0.04 0.05 0.11 0.17
0.37 0.30 0.28 0.32 0.35 0.37 0.33 0.29 0.28 0.27 0.26 0.25 0.22 0.23 0.25 0.25 0.20 0.14 0.12 0.10 0.06 0.04 0.03 0.04 0.04 0.02 0.01 0.00 0.00 0.00 0.01 0.01 0.02 0.02 0.03 0.05 0.09 0.19
0.23 0.18 0.14 0.15 0.19 0.24 0.24 0.22 0.22 0.21 0.22 0.23 0.24 0.23 0.24 0.22 0.18 0.14 0.11 0.07 0.07 0.07 0.07 0.06 0.04 0.02 0.00 0.00 0.00 0.00 0.00 0.01 0.02 0.02 0.02 0.02 0.04 0.15
0.17 0.14 0.08 0.07 0.09 0.08 0.08 0.09 0.11 0.13 0.16 0.20 0.23 0.22 0.21 0.18 0.14 0.15 0.13 0.10 0.07 0.05 0.06 0.05 0.02 0.01 0.00 0.00 0.00 0.00 0.00 0.01 0.02 0.04 0.05 0.02 0.01 0.04
0.13 0.11 0.08 0.05 0.05 0.04 0.05 0.05 0.06 0.07 0.10 0.15 0.17 0.17 0.15 0.13 0.12 0.13 0.13 0.10 0.07 0.04 0.04 0.04 0.02 0.01 0.01 0.02 0.00 0.00 0.00 0.00 0.01 0.07 0.18 0.20 0.10 0.05
0.14 0.12 0.09 0.06 0.03 0.03 0.04 0.04 0.04 0.05 0.07 0.09 0.11 0.12 0.11 0.09 0.07 0.06 0.06 0.05 0.04 0.04 0.03 0.03 0.02 0.03 0.03 0.03 0.02 0.01 0.00 0.00 0.01 0.06 0.21 0.45 0.51 0.32
0.18 0.15 0.11 0.06 0.03 0.02 0.03 0.03 0.03 0.02 0.03 0.04 0.05 0.05 0.05 0.05 0.04 0.04 0.03 0.02 0.02 0.03 0.02 0.01 0.01 0.02 0.05 0.03 0.02 0.02 0.01 0.00 0.01 0.06 0.25 0.59 0.71 0.63
0.21 0.17 0.13 0.08 0.04 0.02 0.02 0.03 0.02 0.01 0.01 0.02 0.03 0.03 0.03 0.03 0.03 0.03 0.02 0.02 0.01 0.01 0.01 0.00 0.01 0.01 0.02 0.02 0.01 0.01 0.01 0.01 0.01 0.03 0.12 0.40 0.68 0.71
0.30 0.22 0.16 0.11 0.07 0.03 0.02 0.02 0.01 0.01 0.01 0.01 0.01 0.02 0.02 0.02 0.02 0.02 0.01 0.01 0.01 0.01 0.00 0.00 0.00 0.00 0.01 0.01 0.01 0.01 0.02 0.01 0.03 0.04 0.05 0.14 0.32 0.61
0.39 0.34 0.23 0.15 0.10 0.06 0.02 0.01 0.01 0.00 0.01 0.01 0.01 0.01 0.01 0.01 0.01 0.01 0.00 0.00 0.00 0.00 0.00 0.00 0.00 0.00 0.00 0.01 0.02 0.02 0.02 0.01 0.02 0.05 0.07 0.10 0.21 0.39
0.47 0.41 0.33 0.23 0.16 0.08 0.04 0.02 0.01 0.00 0.00 0.00 0.00 0.00 0.00 0.00 0.00 0.00 0.00 0.00 0.00 0.00 0.00 0.00 0.00 0.00 0.00 0.00 0.00 0.01 0.01 0.01 0.01 0.03 0.07 0.13 0.23 0.32
0.55 0.52 0.43 0.33 0.23 0.11 0.05 0.02 0.01 0.00 0.00 0.00 0.00 0.00 0.00 0.00 0.00 0.00 0.00 0.00 0.00 0.00 0.00 0.00 0.00 0.00 0.00 0.00 0.00 0.00 0.00 0.00 0.00 0.01 0.01 0.05 0.15 0.21
0.62 0.60 0.46 0.34 0.24 0.11 0.04 0.02 0.01 0.01 0.01 0.00 0.00 0.00 0.00 0.00 0.00 0.00 0.00 0.00 0.00 0.00 0.00 0.00 0.00 0.00 0.00 0.00 0.00 0.00 0.00 0.00 0.00 0.00 0.00 0.00 0.03 0.10
0.53 0.53 0.41 0.31 0.21 0.09 0.03 0.01 0.01 0.01 0.00 0.00 0.00 0.00 0.00 0.00 0.00 0.00 0.00 0.00 0.00 0.00 0.00 0.00 0.00 0.00 0.00 0.00 0.00 0.00 0.00 0.00 0.00 0.00 0.00 0.00 0.01 0.02
0.42 0.41 0.32 0.24 0.16 0.07 0.03 0.01 0.00 0.00 0.00 0.00 0.00 0.00 0.00 0.00 0.00 0.00 0.00 0.00 0.00 0.00 0.00 0.00 0.00 0.00 0.00 0.00 0.00 0.00 0.00 0.00 0.00 0.00 0.00 0.00 0.00 0.00
0.32 0.29 0.22 0.16 0.10 0.04 0.01 0.01 0.00 0.00 0.00 0.00 0.00 0.00 0.00 0.00 0.00 0.00 0.00 0.00 0.00 0.00 0.00 0.00 0.00 0.00 0.00 0.00 0.00 0.00 0.00 0.00 0.00 0.00 0.00 0.00 0.00 0.00
0.22 0.18 0.13 0.09 0.05 0.02 0.01 0.00 0.00 0.00 0.00 0.00 0.00 0.00 0.00 0.00 0.00 0.00 0.00 0.00 0.00 0.00 0.00 0.00 0.00 0.00 0.00 0.00 0.00 0.00 0.00 0.00 0.00 0.00 0.00 0.00 0.00 0.00
0.14 0.09 0.06 0.03 0.02 0.00 0.00 0.00 0.00 0.00 0.00 0.00 0.00 0.00 0.00 0.00 0.00 0.00 0.00 0.00 0.00 0.00 0.00 0.00 0.00 0.00 0.00 0.00 0.00 0.00 0.00 0.00 0.00 0.00 0.00 0.00 0.00 0.00

GEFSNE_prec_meanprecacc_036.txt.gz
Total_Precipitation_Accumulation
0.31 0.39 0.42 0.44 0.50 0.54 0.56 0.60 0.61 0.58 0.63 0.61 0.48 0.45 0.47 0.44 0.35 0.27 0.16 0.10 0.08 0.06 0.06 0.05 0.05 0.05 0.05 0.07 0.11 0.16 0.22 0.31 0.39 0.50 0.63 0.74 0.84 0.95
0.48 0.52 0.53 0.56 0.58 0.56 0.57 0.61 0.62 0.64 0.62 0.52 0.41 0.43 0.40 0.30 0.25 0.19 0.12 0.09 0.06 0.05 0.04 0.03 0.04 0.05 0.05 0.04 0.04 0.05 0.06 0.08 0.12 0.17 0.26 0.38 0.51 0.67
0.60 0.64 0.67 0.69 0.67 0.58 0.56 0.55 0.57 0.62 0.54 0.39 0.30 0.31 0.28 0.22 0.18 0.13 0.09 0.06 0.04 0.05 0.04 0.02 0.02 0.03 0.04 0.03 0.03 0.03 0.04 0.04 0.05 0.07 0.10 0.15 0.20 0.28
0.67 0.75 0.75 0.68 0.59 0.53 0.51 0.51 0.53 0.58 0.51 0.35 0.29 0.28 0.26 0.24 0.20 0.17 0.11 0.07 0.05 0.07 0.05 0.03 0.03 0.02 0.01 0.01 0.01 0.02 0.02 0.02 0.02 0.04 0.07 0.10 0.11 0.12
0.73 0.69 0.65 0.62 0.54 0.47 0.42 0.40 0.42 0.52 0.48 0.33 0.29 0.26 0.26 0.26 0.23 0.19 0.15 0.11 0.07 0.06 0.07 0.06 0.05 0.02 0.01 0.01 0.01 0.01 0.01 0.01 0.03 0.03 0.05 0.08 0.10 0.10
0.68 0.63 0.56 0.49 0.49 0.46 0.39 0.34 0.34 0.35 0.33 0.29 0.27 0.28 0.29 0.28 0.23 0.20 0.17 0.12 0.08 0.04 0.06 0.10 0.08 0.03 0.01 0.01 0.00 0.01 0.01 0.01 0.03 0.04 0.04 0.05 0.11 0.17
0.46 0.43 0.44 0.48 0.45 0.44 0.37 0.31 0.29 0.27 0.27 0.26 0.25 0.27 0.31 0.32 0.26 0.17 0.14 0.12 0.08 0.05 0.04 0.05 0.04 0.02 0.01 0.00 0.00 0.00 0.01 0.01 0.02 0.02 0.03 0.05 0.09 0.20
0.28 0.25 0.23 0.29 0.35 0.36 0.30 0.26 0.24 0.22 0.23 0.24 0.26 0.26 0.27 0.25 0.20 0.16 0.12 0.09 0.09 0.08 0.08 0.06 0.04 0.02 0.00 0.00 0.00 0.01 0.00 0.01 0.02 0.02 0.02 0.02 0.05 0.15
0.18 0.18 0.15 0.15 0.21 0.22 0.18 0.14 0.14 0.15 0.17 0.21 0.25 0.23 0.22 0.20 0.16 0.17 0.16 0.12 0.08 0.06 0.06 0.05 0.03 0.01 0.00 0.00 0.00 0.00 0.00 0.01 0.02 0.04 0.05 0.02 0.01 0.04
0.14 0.13 0.12 0.13 0.14 0.15 0.15 0.12 0.09 0.08 0.11 0.16 0.19 0.19 0.17 0.15 0.14 0.16 0.16 0.14 0.09 0.05 0.04 0.05 0.03 0.02 0.01 0.02 0.00 0.00 0.00 0.00 0.01 0.07 0.18 0.20 0.10 0.05
0.15 0.14 0.12 0.09 0.10 0.11 0.12 0.11 0.08 0.07 0.08 0.11 0.14 0.17 0.18 0.16 0.12 0.11 0.10 0.08 0.06 0.05 0.03 0.03 0.03 0.03 0.04 0.03 0.02 0.01 0.00 0.00 0.01 0.06 0.21 0.45 0.51 0.32
0.18 0.17 0.15 0.11 0.09 0.08 0.10 0.09 0.07 0.04 0.04 0.06 0.09 0.13 0.14 0.14 0.12 0.08 0.06 0.04 0.03 0.03 0.02 0.01 0.01 0.02 0.05 0.04 0.02 0.02 0.01 0.00 0.01 0.06 0.25 0.59 0.71 0.63
0.22 0.20 0.17 0.14 0.11 0.09 0.08 0.09 0.06 0.04 0.03 0.04 0.07 0.11 0.13 0.14 0.11 0.08 0.07 0.04 0.02 0.01 0.01 0.00 0.01 0.01 0.02 0.02 0.01 0.01 0.01 0.01 0.01 0.03 0.12 0.40 0.68 0.71
0.31 0.25 0.22 0.19 0.14 0.13 0.10 0.09 0.07 0.05 0.04 0.05 0.07 0.09 0.11 0.12 0.11 0.09 0.07 0.04 0.02 0.01 0.01 0.00 0.00 0.00 0.01 0.01 0.01 0.01 0.02 0.01 0.03 0.04 0.05 0.14 0.32 0.61
0.41 0.39 0.32 0.27 0.23 0.18 0.17 0.14 0.09 0.05 0.05 0.05 0.06 0.06 0.06 0.06 0.06 0.07 0.07 0.04 0.02 0.01 0.00 0.00 0.00 0.00 0.00 0.01 0.02 0.02 0.02 0.01 0.02 0.05 0.07 0.10 0.21 0.39
0.51 0.50 0.44 0.39 0.35 0.29 0.26 0.22 0.14 0.08 0.06 0.05 0.05 0.05 0.06 0.06 0.05 0.04 0.04 0.03 0.02 0.00 0.00 0.00 0.00 0.00 0.00 0.00 0.00 0.01 0.01 0.01 0.01 0.03 0.07 0.13 0.23 0.32
0.62 0.64 0.59 0.52 0.48 0.41 0.33 0.28 0.21 0.15 0.10 0.06 0.06 0.06 0.06 0.06 0.04 0.03 0.02 0.01 0.01 0.01 0.00 0.00 0.00 0.00 0.00 0.00 0.00 0.00 0.00 0.00 0.00 0.01 0.01 0.05 0.15 0.21
0.71 0.73 0.64 0.55 0.50 0.44 0.36 0.31 0.27 0.20 0.13 0.08 0.07 0.06 0.05 0.05 0.04 0.02 0.02 0.01 0.01 0.01 0.00 0.00 0.00 0.00 0.00 0.00 0.00 0.00 0.00 0.00 0.00 0.00 0.00 0.00 0.03 0.10
0.63 0.66 0.59 0.54 0.47 0.44 0.36 0.29 0.26 0.21 0.15 0.10 0.06 0.05 0.04 0.03 0.03 0.02 0.01 0.01 0.01 0.00 0.00 0.00 0.00 0.00 0.00 0.00 0.00 0.00 0.00 0.00 0.00 0.00 0.00 0.00 0.01 0.02
0.54 0.55 0.51 0.49 0.44 0.42 0.35 0.29 0.24 0.20 0.15 0.11 0.06 0.05 0.04 0.03 0.02 0.02 0.01 0.00 0.00 0.00 0.00 0.00 0.00 0.00 0.00 0.00 0.00 0.00 0.00 0.00 0.00 0.00 0.00 0.00 0.00 0.00
0.47 0.44 0.43 0.41 0.40 0.38 0.33 0.28 0.23 0.18 0.13 0.09 0.05 0.03 0.03 0.03 0.01 0.01 0.00 0.00 0.00 0.00 0.00 0.00 0.00 0.00 0.00 0.00 0.00 0.00 0.00 0.00 0.00 0.00 0.00 0.00 0.00 0.00
0.37 0.36 0.36 0.35 0.33 0.31 0.28 0.25 0.21 0.17 0.11 0.06 0.03 0.02 0.03 0.02 0.01 0.00 0.00 0.00 0.00 0.00 0.00 0.00 0.00 0.00 0.00 0.00 0.00 0.00 0.00 0.00 0.00 0.00 0.00 0.00 0.00 0.00
0.32 0.30 0.29 0.27 0.24 0.22 0.21 0.18 0.16 0.13 0.08 0.04 0.02 0.01 0.01 0.01 0.01 0.00 0.00 0.00 0.00 0.00 0.00 0.00 0.00 0.00 0.00 0.00 0.00 0.00 0.00 0.00 0.00 0.00 0.00 0.00 0.00 0.00

GEFSNE_prec_meanprecacc_042.txt.gz
Total_Precipitation_Accumulation
0.44 0.49 0.48 0.47 0.52 0.55 0.57 0.61 0.61 0.59 0.64 0.61 0.50 0.46 0.47 0.44 0.35 0.28 0.17 0.12 0.10 0.09 0.09 0.08 0.07 0.09 0.10 0.12 0.17 0.22 0.29 0.37 0.45 0.56 0.69 0.82 0.94 1.08
0.67 0.70 0.66 0.64 0.63 0.58 0.58 0.62 0.62 0.64 0.63 0.53 0.43 0.44 0.41 0.30 0.26 0.20 0.12 0.10 0.09 0.08 0.08 0.07 0.07 0.08 0.08 0.07 0.08 0.09 0.11 0.13 0.17 0.23 0.32 0.44 0.57 0.73
0.83 0.89 0.87 0.84 0.78 0.65 0.60 0.56 0.58 0.63 0.56 0.40 0.32 0.32 0.29 0.23 0.19 0.14 0.09 0.07 0.06 0.07 0.07 0.06 0.05 0.05 0.05 0.05 0.05 0.05 0.07 0.08 0.09 0.11 0.14 0.19 0.24 0.32
0.89 1.00 1.03 0.93 0.77 0.65 0.59 0.55 0.55 0.60 0.53 0.36 0.31 0.29 0.27 0.26 0.22 0.17 0.11 0.07 0.06 0.09 0.07 0.05 0.05 0.04 0.02 0.02 0.02 0.02 0.03 0.04 0.05 0.06 0.09 0.12 0.13 0.14
0.91 0.93 0.92 0.93 0.82 0.69 0.55 0.48 0.47 0.56 0.51 0.36 0.31 0.29 0.28 0.28 0.24 0.20 0.15 0.12 0.07 0.07 0.08 0.07 0.06 0.03 0.02 0.01 0.01 0.01 0.01 0.02 0.03 0.05 0.06 0.10 0.11 0.11
0.77 0.81 0.82 0.82 0.82 0.77 0.64 0.51 0.45 0.43 0.39 0.33 0.30 0.32 0.31 0.30 0.25 0.21 0.18 0.13 0.08 0.04 0.06 0.10 0.09 0.03 0.01 0.01 0.00 0.01 0.01 0.01 0.03 0.05 0.05 0.06 0.12 0.17
0.49 0.51 0.61 0.75 0.81 0.81 0.70 0.57 0.49 0.40 0.35 0.32 0.29 0.31 0.33 0.34 0.27 0.18 0.15 0.12 0.09 0.05 0.04 0.05 0.04 0.02 0.01 0.00 0.00 0.01 0.01 0.01 0.02 0.02 0.03 0.05 0.09 0.20
0.29 0.28 0.30 0.43 0.59 0.69 0.68 0.60 0.51 0.43 0.37 0.33 0.31 0.30 0.29 0.26 0.21 0.17 0.13 0.09 0.10 0.09 0.08 0.07 0.04 0.02 0.00 0.00 0.00 0.01 0.00 0.01 0.02 0.02 0.02 0.02 0.05 0.15
0.20 0.19 0.17 0.20 0.31 0.41 0.49 0.52 0.47 0.39 0.34 0.35 0.35 0.30 0.27 0.22 0.17 0.18 0.16 0.12 0.09 0.07 0.06 0.06 0.03 0.01 0.00 0.00 0.00 0.00 0.00 0.01 0.02 0.04 0.05 0.02 0.01 0.04
0.16 0.14 0.14 0.15 0.19 0.23 0.31 0.39 0.42 0.37 0.29 0.27 0.28 0.29 0.27 0.22 0.17 0.18 0.18 0.15 0.11 0.07 0.05 0.05 0.03 0.02 0.02 0.02 0.00 0.00 0.00 0.00 0.01 0.07 0.18 0.20 0.10 0.05
0.17 0.15 0.13 0.11 0.12 0.15 0.20 0.25 0.30 0.34 0.33 0.28 0.25 0.26 0.27 0.23 0.17 0.13 0.13 0.11 0.09 0.07 0.04 0.03 0.03 0.03 0.04 0.04 0.02 0.01 0.00 0.00 0.01 0.06 0.21 0.45 0.51 0.32
0.22 0.19 0.16 0.12 0.10 0.10 0.14 0.18 0.20 0.21 0.24 0.25 0.23 0.21 0.20 0.19 0.16 0.11 0.09 0.07 0.06 0.06 0.04 0.02 0.01 0.02 0.05 0.04 0.03 0.03 0.01 0.00 0.01 0.06 0.25 0.59 0.71 0.63
0.25 0.23 0.19 0.14 0.11 0.09 0.10 0.14 0.15 0.17 0.19 0.21 0.23 0.23 0.22 0.21 0.16 0.12 0.11 0.08 0.06 0.04 0.02 0.01 0.01 0.01 0.02 0.02 0.01 0.01 0.02 0.01 0.01 0.03 0.12 0.40 0.68 0.71
0.35 0.28 0.24 0.19 0.14 0.13 0.11 0.12 0.14 0.16 0.20 0.21 0.22 0.22 0.21 0.20 0.18 0.15 0.12 0.10 0.07 0.05 0.03 0.01 0.01 0.01 0.01 0.01 0.01 0.01 0.02 0.01 0.03 0.04 0.05 0.14 0.32 0.61
0.45 0.42 0.33 0.28 0.23 0.19 0.18 0.17 0.15 0.14 0.17 0.20 0.20 0.17 0.14 0.14 0.14 0.16 0.17 0.12 0.08 0.06 0.04 0.02 0.01 0.00 0.00 0.01 0.02 0.02 0.02 0.01 0.02 0.05 0.07 0.10 0.21 0.39
0.53 0.52 0.44 0.39 0.35 0.30 0.28 0.25 0.19 0.16 0.16 0.17 0.19 0.18 0.17 0.14 0.12 0.12 0.13 0.12 0.08 0.06 0.03 0.02 0.01 0.00 0.00 0.00 0.00 0.01 0.01 0.01 0.01 0.03 0.07 0.13 0.23 0.32
0.65 0.68 0.61 0.53 0.49 0.43 0.37 0.32 0.29 0.25 0.22 0.20 0.21 0.21 0.20 0.18 0.13 0.09 0.09 0.07 0.05 0.04 0.02 0.01 0.00 0.00 0.00 0.00 0.00 0.00 0.00 0.00 0.00 0.01 0.01 0.05 0.15 0.21
0.73 0.77 0.68 0.58 0.52 0.48 0.43 0.39 0.37 0.32 0.29 0.25 0.21 0.21 0.19 0.18 0.15 0.11 0.07 0.06 0.04 0.03 0.02 0.01 0.01 0.00 0.00 0.00 0.00 0.00 0.00 0.00 0.00 0.00 0.00 0.00 0.03 0.10
0.65 0.70 0.63 0.57 0.51 0.49 0.46 0.41 0.37 0.36 0.35 0.32 0.25 0.22 0.20 0.16 0.14 0.11 0.08 0.05 0.04 0.03 0.02 0.01 0.01 0.01 0.00 0.00 0.00 0.00 0.00 0.00 0.00 0.00 0.00 0.00 0.01 0.02
0.56 0.59 0.55 0.52 0.49 0.50 0.47 0.45 0.40 0.39 0.40 0.38 0.30 0.25 0.22 0.16 0.12 0.10 0.07 0.05 0.04 0.03 0.02 0.01 0.01 0.00 0.00 0.00 0.00 0.00 0.00 0.00 0.00 0.00 0.00 0.00 0.00 0.00
0.50 0.49 0.48 0.47 0.47 0.48 0.48 0.47 0.45 0.42 0.39 0.37 0.33 0.26 0.23 0.19 0.13 0.09 0.08 0.07 0.04 0.02 0.02 0.01 0.01 0.00 0.00 0.00 0.00 0.00 0.00 0.00 0.00 0.00 0.00 0.00 0.00 0.00
0.43 0.41 0.42 0.43 0.43 0.43 0.44 0.45 0.47 0.44 0.38 0.35 0.33 0.26 0.21 0.18 0.13 0.09 0.08 0.06 0.04 0.03 0.02 0.01 0.01 0.00 0.00 0.00 0.00 0.00 0.00 0.00 0.00 0.00 0.00 0.00 0.00 0.00
0.39 0.37 0.38 0.37 0.36 0.35 0.36 0.37 0.40 0.40 0.36 0.32 0.28 0.23 0.19 0.16 0.12 0.09 0.07 0.06 0.04 0.02 0.02 0.01 0.01 0.00 0.00 0.00 0.00 0.00 0.00 0.00 0.00 0.00 0.00 0.00 0.00 0.00

GEFSNE_prec_meanprecacc_048.txt.gz
Total_Precipitation_Accumulation
0.61 0.72 0.74 0.70 0.69 0.69 0.67 0.67 0.68 0.66 0.70 0.67 0.53 0.49 0.50 0.46 0.36 0.29 0.17 0.12 0.10 0.09 0.09 0.09 0.08 0.10 0.12 0.15 0.20 0.27 0.34 0.41 0.49 0.62 0.75 0.89 1.01 1.16
0.77 0.86 0.88 0.89 0.87 0.77 0.74 0.73 0.69 0.71 0.71 0.60 0.49 0.48 0.44 0.31 0.26 0.21 0.13 0.10 0.09 0.08 0.08 0.07 0.07 0.09 0.09 0.09 0.10 0.12 0.14 0.17 0.21 0.27 0.38 0.50 0.63 0.80
0.90 1.00 1.04 1.06 1.05 0.93 0.82 0.73 0.70 0.73 0.67 0.52 0.43 0.40 0.34 0.25 0.20 0.14 0.10 0.07 0.06 0.08 0.07 0.06 0.05 0.06 0.06 0.06 0.06 0.07 0.08 0.10 0.12 0.14 0.19 0.24 0.29 0.37
0.93 1.08 1.16 1.12 1.01 0.94 0.90 0.81 0.76 0.77 0.68 0.53 0.45 0.39 0.34 0.30 0.25 0.19 0.12 0.08 0.06 0.09 0.07 0.05 0.05 0.04 0.03 0.03 0.03 0.04 0.05 0.06 0.07 0.08 0.11 0.14 0.15 0.17
0.93 0.98 1.00 1.06 1.03 0.94 0.85 0.80 0.76 0.81 0.72 0.55 0.49 0.43 0.38 0.34 0.28 0.22 0.16 0.12 0.07 0.07 0.08 0.07 0.06 0.03 0.02 0.02 0.02 0.02 0.02 0.03 0.04 0.06 0.08 0.11 0.13 0.13
0.79 0.84 0.87 0.90 0.95 0.98 0.91 0.83 0.81 0.79 0.71 0.59 0.51 0.52 0.44 0.38 0.30 0.24 0.19 0.13 0.08 0.04 0.06 0.10 0.09 0.04 0.02 0.01 0.01 0.01 0.01 0.02 0.03 0.05 0.05 0.06 0.12 0.18
0.51 0.52 0.64 0.80 0.90 0.95 0.91 0.86 0.84 0.78 0.73 0.67 0.58 0.53 0.48 0.41 0.32 0.22 0.16 0.13 0.09 0.05 0.04 0.05 0.04 0.02 0.01 0.01 0.01 0.01 0.01 0.01 0.02 0.02 0.03 0.05 0.09 0.20
0.33 0.31 0.32 0.46 0.65 0.78 0.81 0.80 0.81 0.79 0.76 0.70 0.67 0.62 0.49 0.38 0.29 0.21 0.14 0.10 0.10 0.09 0.08 0.07 0.04 0.02 0.00 0.00 0.00 0.01 0.01 0.01 0.02 0.02 0.02 0.02 0.05 0.15
0.27 0.26 0.21 0.21 0.33 0.46 0.57 0.63 0.66 0.63 0.65 0.71 0.72 0.66 0.59 0.45 0.31 0.24 0.20 0.14 0.10 0.07 0.06 0.06 0.03 0.01 0.00 0.00 0.00 0.00 0.00 0.01 0.02 0.04 0.05 0.02 0.01 0.04
0.25 0.23 0.20 0.20 0.22 0.27 0.36 0.45 0.51 0.51 0.48 0.50 0.57 0.64 0.67 0.57 0.40 0.32 0.26 0.20 0.13 0.07 0.05 0.06 0.03 0.02 0.02 0.02 0.00 0.00 0.00 0.00 0.01 0.07 0.18 0.20 0.10 0.05
0.25 0.24 0.22 0.18 0.17 0.18 0.25 0.30 0.36 0.44 0.46 0.46 0.47 0.51 0.56 0.57 0.49 0.34 0.24 0.16 0.11 0.08 0.04 0.03 0.03 0.04 0.04 0.04 0.02 0.01 0.00 0.00 0.01 0.06 0.21 0.45 0.51 0.32
0.33 0.30 0.24 0.20 0.16 0.12 0.17 0.23 0.26 0.29 0.35 0.39 0.41 0.40 0.38 0.40 0.41 0.32 0.21 0.14 0.09 0.07 0.04 0.02 0.01 0.02 0.05 0.04 0.03 0.03 0.01 0.00 0.01 0.06 0.25 0.59 0.71 0.63
0.38 0.35 0.29 0.20 0.15 0.11 0.12 0.18 0.21 0.25 0.28 0.32 0.39 0.41 0.40 0.37 0.33 0.27 0.23 0.15 0.08 0.05 0.02 0.01 0.01 0.01 0.02 0.02 0.01 0.01 0.02 0.01 0.01 0.03 0.12 0.40 0.68 0.71
0.53 0.45 0.38 0.28 0.17 0.14 0.13 0.13 0.16 0.20 0.30 0.31 0.34 0.39 0.39 0.38 0.34 0.29 0.23 0.18 0.11 0.06 0.03 0.01 0.01 0.01 0.01 0.01 0.01 0.01 0.02 0.01 0.03 0.04 0.05 0.14 0.32 0.61
0.63 0.59 0.47 0.36 0.27 0.20 0.19 0.18 0.15 0.16 0.23 0.30 0.29 0.29 0.29 0.31 0.36 0.36 0.32 0.22 0.13 0.08 0.05 0.03 0.01 0.00 0.00 0.01 0.02 0.02 0.02 0.01 0.02 0.05 0.07 0.10 0.21 0.39
0.62 0.63 0.52 0.44 0.38 0.32 0.28 0.25 0.20 0.17 0.19 0.26 0.28 0.29 0.31 0.33 0.34 0.34 0.30 0.23 0.14 0.09 0.05 0.03 0.02 0.01 0.00 0.00 0.00 0.01 0.01 0.01 0.02 0.03 0.07 0.13 0.23 0.32
0.74 0.81 0.71 0.59 0.52 0.46 0.39 0.34 0.30 0.27 0.24 0.26 0.33 0.34 0.35 0.34 0.31 0.26 0.23 0.18 0.13 0.07 0.04 0.02 0.01 0.01 0.00 0.00 0.00 0.00 0.00 0.00 0.00 0.01 0.01 0.05 0.15 0.21
0.79 0.91 0.81 0.68 0.58 0.52 0.47 0.42 0.39 0.35 0.32 0.30 0.31 0.35 0.34 0.33 0.30 0.24 0.19 0.15 0.11 0.07 0.04 0.03 0.02 0.01 0.01 0.00 0.00 0.00 0.00 0.00 0.00 0.00 0.00 0.00 0.03 0.10
0.68 0.80 0.75 0.67 0.60 0.56 0.51 0.45 0.41 0.39 0.39 0.37 0.35 0.34 0.35 0.32 0.27 0.22 0.18 0.14 0.11 0.09 0.05 0.03 0.02 0.01 0.01 0.01 0.00 0.00 0.00 0.00 0.00 0.00 0.00 0.00 0.01 0.02
0.60 0.67 0.66 0.62 0.58 0.57 0.54 0.51 0.45 0.46 0.46 0.45 0.42 0.37 0.36 0.33 0.27 0.21 0.17 0.13 0.09 0.08 0.06 0.03 0.02 0.01 0.01 0.01 0.00 0.00 0.00 0.00 0.00 0.00 0.00 0.00 0.00 0.00
0.56 0.58 0.59 0.56 0.55 0.55 0.55 0.54 0.52 0.50 0.48 0.48 0.48 0.42 0.37 0.34 0.27 0.20 0.18 0.16 0.10 0.07 0.06 0.04 0.02 0.01 0.01 0.01 0.00 0.00 0.00 0.00 0.00 0.00 0.00 0.00 0.00 0.00
0.54 0.51 0.52 0.52 0.51 0.51 0.51 0.52 0.54 0.53 0.50 0.47 0.49 0.47 0.40 0.34 0.28 0.21 0.18 0.15 0.10 0.07 0.05 0.04 0.03 0.02 0.01 0.01 0.01 0.00 0.00 0.00 0.00 0.00 0.00 0.00 0.00 0.00
0.50 0.48 0.47 0.44 0.42 0.43 0.43 0.44 0.47 0.49 0.46 0.44 0.45 0.46 0.42 0.35 0.29 0.23 0.18 0.15 0.11 0.09 0.07 0.05 0.04 0.02 0.01 0.01 0.00 0.00 0.00 0.00 0.00 0.00 0.00 0.00 0.00 0.00

GEFSNE_prec_meanprecacc_054.txt.gz
Total_Precipitation_Accumulation
0.62 0.76 0.81 0.77 0.77 0.82 0.85 0.86 0.88 0.84 0.84 0.79 0.65 0.57 0.54 0.49 0.38 0.30 0.18 0.13 0.11 0.10 0.10 0.09 0.10 0.12 0.14 0.16 0.22 0.28 0.36 0.44 0.53 0.65 0.79 0.93 1.05 1.21
0.78 0.87 0.91 0.95 0.93 0.86 0.89 0.90 0.90 0.93 0.89 0.74 0.63 0.61 0.52 0.36 0.28 0.22 0.14 0.11 0.09 0.09 0.09 0.08 0.08 0.10 0.11 0.10 0.11 0.13 0.16 0.20 0.24 0.30 0.40 0.53 0.67 0.83
0.90 1.00 1.05 1.09 1.09 1.00 0.94 0.90 0.87 0.93 0.87 0.72 0.64 0.61 0.48 0.32 0.24 0.16 0.11 0.08 0.07 0.08 0.07 0.06 0.06 0.06 0.07 0.07 0.07 0.08 0.10 0.11 0.13 0.16 0.21 0.26 0.32 0.41
0.93 1.09 1.17 1.13 1.04 0.99 0.98 0.94 0.91 0.96 0.90 0.79 0.74 0.64 0.53 0.42 0.31 0.23 0.13 0.08 0.06 0.09 0.07 0.06 0.06 0.05 0.03 0.04 0.04 0.05 0.06 0.08 0.08 0.09 0.12 0.16 0.18 0.20
0.94 0.98 1.01 1.07 1.05 0.97 0.91 0.89 0.88 0.97 0.94 0.83 0.85 0.77 0.65 0.52 0.38 0.27 0.19 0.13 0.08 0.07 0.09 0.08 0.06 0.04 0.03 0.03 0.03 0.03 0.04 0.04 0.05 0.07 0.09 0.13 0.15 0.15
0.79 0.84 0.87 0.91 0.96 1.00 0.94 0.89 0.91 0.92 0.91 0.88 0.89 0.94 0.80 0.62 0.44 0.33 0.23 0.15 0.09 0.05 0.07 0.11 0.10 0.04 0.02 0.02 0.02 0.02 0.03 0.03 0.04 0.06 0.06 0.08 0.14 0.20
0.52 0.53 0.64 0.81 0.91 0.96 0.93 0.89 0.91 0.90 0.89 0.92 0.93 0.98 0.93 0.70 0.47 0.31 0.22 0.16 0.10 0.06 0.04 0.05 0.05 0.02 0.01 0.01 0.01 0.01 0.02 0.02 0.03 0.03 0.04 0.06 0.10 0.21
0.34 0.32 0.33 0.47 0.66 0.80 0.83 0.83 0.86 0.88 0.90 0.89 0.93 0.97 0.93 0.74 0.49 0.34 0.23 0.14 0.12 0.10 0.08 0.08 0.05 0.03 0.01 0.00 0.01 0.01 0.01 0.01 0.02 0.02 0.03 0.03 0.05 0.15
0.30 0.28 0.22 0.22 0.35 0.48 0.59 0.66 0.69 0.68 0.76 0.88 0.95 0.94 0.96 0.86 0.63 0.41 0.29 0.20 0.12 0.08 0.07 0.07 0.04 0.01 0.01 0.01 0.01 0.01 0.01 0.01 0.02 0.04 0.05 0.02 0.01 0.04
0.28 0.25 0.22 0.21 0.24 0.29 0.39 0.48 0.54 0.54 0.53 0.61 0.76 0.89 0.99 1.01 0.82 0.61 0.42 0.28 0.18 0.09 0.06 0.06 0.04 0.03 0.02 0.02 0.01 0.01 0.00 0.00 0.01 0.07 0.18 0.20 0.10 0.05
0.28 0.26 0.24 0.19 0.19 0.21 0.28 0.33 0.38 0.47 0.51 0.53 0.62 0.79 0.90 0.96 0.98 0.78 0.52 0.29 0.17 0.12 0.06 0.04 0.03 0.04 0.05 0.04 0.02 0.01 0.00 0.00 0.01 0.06 0.21 0.45 0.51 0.33
0.36 0.34 0.27 0.23 0.19 0.16 0.21 0.26 0.29 0.32 0.39 0.44 0.51 0.61 0.71 0.76 0.82 0.74 0.54 0.33 0.18 0.12 0.06 0.02 0.02 0.03 0.05 0.04 0.03 0.03 0.01 0.00 0.01 0.06 0.25 0.59 0.71 0.63
0.41 0.39 0.33 0.24 0.19 0.16 0.16 0.22 0.24 0.30 0.34 0.38 0.46 0.58 0.67 0.72 0.69 0.64 0.54 0.36 0.20 0.10 0.05 0.02 0.01 0.01 0.02 0.02 0.01 0.01 0.02 0.01 0.01 0.03 0.12 0.40 0.68 0.71
0.58 0.52 0.44 0.33 0.23 0.20 0.17 0.18 0.20 0.25 0.36 0.39 0.42 0.51 0.58 0.64 0.66 0.63 0.55 0.40 0.26 0.15 0.09 0.05 0.02 0.01 0.01 0.01 0.01 0.01 0.02 0.01 0.03 0.04 0.05 0.14 0.32 0.61
0.67 0.66 0.54 0.42 0.33 0.25 0.24 0.22 0.20 0.20 0.29 0.37 0.37 0.38 0.42 0.49 0.63 0.71 0.71 0.54 0.33 0.19 0.11 0.07 0.04 0.02 0.01 0.01 0.02 0.02 0.02 0.01 0.02 0.05 0.07 0.10 0.21 0.39
0.65 0.67 0.58 0.52 0.46 0.37 0.32 0.29 0.23 0.20 0.23 0.31 0.35 0.38 0.44 0.51 0.58 0.67 0.71 0.60 0.39 0.21 0.09 0.05 0.03 0.02 0.01 0.00 0.00 0.01 0.01 0.01 0.02 0.03 0.07 0.13 0.23 0.32
0.77 0.86 0.77 0.66 0.59 0.51 0.42 0.36 0.32 0.28 0.26 0.31 0.40 0.43 0.47 0.48 0.51 0.53 0.58 0.55 0.37 0.19 0.09 0.04 0.02 0.01 0.01 0.01 0.00 0.00 0.00 0.00 0.00 0.01 0.01 0.05 0.15 0.21
0.81 0.95 0.86 0.74 0.64 0.57 0.50 0.44 0.42 0.37 0.33 0.32 0.37 0.43 0.45 0.44 0.45 0.46 0.45 0.44 0.37 0.22 0.12 0.05 0.03 0.02 0.01 0.01 0.00 0.00 0.00 0.00 0.00 0.00 0.00 0.00 0.03 0.10
0.69 0.83 0.78 0.70 0.63 0.60 0.55 0.48 0.43 0.41 0.41 0.39 0.38 0.41 0.45 0.43 0.41 0.41 0.38 0.35 0.33 0.27 0.16 0.09 0.04 0.02 0.02 0.01 0.00 0.00 0.00 0.00 0.00 0.00 0.00 0.00 0.01 0.02
0.60 0.68 0.68 0.64 0.61 0.60 0.57 0.53 0.48 0.48 0.48 0.47 0.45 0.43 0.45 0.43 0.38 0.35 0.34 0.30 0.26 0.24 0.20 0.11 0.05 0.02 0.01 0.01 0.00 0.00 0.00 0.00 0.00 0.00 0.00 0.00 0.00 0.00
0.57 0.60 0.61 0.59 0.58 0.58 0.58 0.56 0.54 0.53 0.51 0.50 0.50 0.46 0.44 0.44 0.38 0.32 0.32 0.31 0.25 0.20 0.17 0.12 0.07 0.04 0.03 0.01 0.01 0.00 0.00 0.00 0.00 0.00 0.00 0.00 0.00 0.00
0.57 0.53 0.55 0.55 0.55 0.54 0.54 0.55 0.57 0.56 0.52 0.49 0.51 0.49 0.44 0.42 0.38 0.32 0.29 0.27 0.22 0.17 0.14 0.13 0.12 0.08 0.04 0.02 0.01 0.00 0.00 0.00 0.00 0.00 0.00 0.00 0.00 0.00
0.53 0.51 0.50 0.48 0.47 0.46 0.46 0.47 0.49 0.51 0.49 0.46 0.47 0.48 0.45 0.40 0.36 0.34 0.29 0.24 0.21 0.19 0.17 0.16 0.16 0.12 0.06 0.03 0.01 0.01 0.00 0.00 0.00 0.00 0.00 0.00 0.00 0.00

GEFSNE_prec_meanprecacc_060.txt.gz
Total_Precipitation_Accumulation
0.62 0.76 0.81 0.78 0.78 0.83 0.88 0.92 0.95 0.91 0.90 0.86 0.73 0.65 0.61 0.56 0.47 0.39 0.24 0.17 0.17 0.16 0.15 0.14 0.13 0.15 0.16 0.19 0.24 0.30 0.37 0.45 0.54 0.67 0.82 0.97 1.10 1.26
0.78 0.87 0.91 0.95 0.93 0.86 0.90 0.95 0.96 1.00 0.96 0.79 0.71 0.71 0.61 0.44 0.37 0.31 0.22 0.20 0.18 0.16 0.14 0.13 0.12 0.14 0.14 0.13 0.13 0.15 0.18 0.22 0.25 0.32 0.43 0.56 0.69 0.85
0.90 1.00 1.05 1.09 1.09 1.00 0.95 0.92 0.92 1.00 0.94 0.78 0.71 0.71 0.59 0.42 0.32 0.25 0.19 0.16 0.14 0.15 0.13 0.10 0.09 0.10 0.10 0.10 0.10 0.11 0.12 0.13 0.15 0.19 0.23 0.29 0.34 0.43
0.93 1.09 1.17 1.13 1.04 0.99 0.99 0.95 0.94 1.02 0.96 0.87 0.83 0.76 0.67 0.56 0.43 0.33 0.23 0.16 0.12 0.15 0.12 0.09 0.09 0.07 0.06 0.05 0.06 0.06 0.08 0.09 0.10 0.12 0.15 0.19 0.20 0.22
0.94 0.98 1.01 1.07 1.05 0.97 0.91 0.90 0.91 1.02 1.01 0.92 0.98 0.93 0.81 0.68 0.53 0.39 0.29 0.21 0.14 0.13 0.13 0.11 0.09 0.06 0.04 0.04 0.03 0.04 0.05 0.06 0.07 0.09 0.12 0.16 0.17 0.17
0.79 0.84 0.87 0.91 0.96 1.00 0.94 0.90 0.93 0.96 0.97 0.97 1.02 1.13 1.00 0.81 0.61 0.45 0.34 0.23 0.14 0.08 0.10 0.14 0.12 0.07 0.04 0.03 0.03 0.03 0.03 0.04 0.06 0.07 0.08 0.10 0.15 0.21
0.52 0.53 0.64 0.81 0.91 0.96 0.93 0.90 0.93 0.93 0.94 0.99 1.04 1.17 1.17 0.95 0.67 0.45 0.33 0.25 0.16 0.09 0.07 0.07 0.06 0.03 0.02 0.02 0.03 0.02 0.02 0.03 0.04 0.04 0.05 0.07 0.12 0.23
0.34 0.32 0.33 0.47 0.67 0.80 0.83 0.83 0.87 0.90 0.94 0.95 1.03 1.11 1.15 1.01 0.76 0.56 0.38 0.25 0.18 0.14 0.11 0.10 0.07 0.04 0.02 0.01 0.02 0.03 0.02 0.02 0.03 0.03 0.03 0.04 0.06 0.16
0.30 0.28 0.22 0.22 0.35 0.48 0.59 0.67 0.70 0.71 0.79 0.92 1.02 1.04 1.13 1.12 0.96 0.72 0.52 0.35 0.20 0.12 0.09 0.10 0.07 0.03 0.02 0.02 0.04 0.02 0.02 0.02 0.03 0.05 0.06 0.03 0.02 0.05
0.28 0.25 0.22 0.22 0.25 0.30 0.39 0.48 0.54 0.56 0.56 0.66 0.82 1.00 1.14 1.23 1.13 0.98 0.78 0.55 0.35 0.20 0.10 0.08 0.06 0.05 0.04 0.04 0.04 0.03 0.02 0.02 0.02 0.08 0.19 0.21 0.10 0.06
0.28 0.26 0.24 0.20 0.19 0.22 0.29 0.33 0.39 0.48 0.53 0.57 0.69 0.90 1.08 1.20 1.30 1.17 0.93 0.65 0.43 0.28 0.15 0.07 0.05 0.06 0.07 0.05 0.04 0.04 0.02 0.01 0.02 0.06 0.21 0.46 0.52 0.33
0.36 0.34 0.28 0.24 0.20 0.16 0.22 0.27 0.30 0.33 0.41 0.47 0.56 0.71 0.87 0.99 1.11 1.07 0.87 0.64 0.42 0.28 0.16 0.07 0.04 0.04 0.06 0.06 0.04 0.03 0.02 0.02 0.02 0.07 0.25 0.59 0.72 0.63
0.41 0.40 0.35 0.25 0.20 0.17 0.17 0.23 0.24 0.31 0.36 0.40 0.50 0.65 0.81 0.94 0.94 0.92 0.84 0.64 0.42 0.24 0.12 0.06 0.04 0.02 0.02 0.02 0.02 0.02 0.02 0.01 0.02 0.04 0.13 0.40 0.68 0.71
0.59 0.53 0.47 0.36 0.25 0.22 0.19 0.19 0.21 0.26 0.38 0.41 0.46 0.57 0.69 0.81 0.89 0.90 0.83 0.69 0.49 0.33 0.19 0.10 0.05 0.03 0.01 0.01 0.01 0.02 0.02 0.02 0.03 0.04 0.05 0.14 0.32 0.61
0.68 0.68 0.57 0.46 0.36 0.28 0.26 0.25 0.23 0.22 0.31 0.39 0.39 0.43 0.49 0.61 0.83 0.98 1.02 0.88 0.65 0.44 0.31 0.19 0.09 0.04 0.02 0.01 0.02 0.02 0.02 0.02 0.02 0.05 0.07 0.10 0.21 0.39
0.66 0.70 0.62 0.58 0.51 0.41 0.36 0.33 0.28 0.23 0.26 0.34 0.38 0.42 0.52 0.62 0.77 0.94 1.05 0.99 0.80 0.53 0.34 0.24 0.13 0.06 0.03 0.01 0.00 0.01 0.01 0.01 0.02 0.03 0.07 0.13 0.23 0.32
0.78 0.88 0.81 0.72 0.66 0.58 0.49 0.43 0.38 0.33 0.30 0.34 0.44 0.48 0.56 0.60 0.67 0.77 0.90 0.92 0.77 0.53 0.34 0.25 0.18 0.09 0.05 0.02 0.01 0.00 0.00 0.00 0.00 0.01 0.01 0.05 0.15 0.21
0.83 0.98 0.91 0.79 0.72 0.66 0.60 0.53 0.48 0.41 0.37 0.36 0.41 0.49 0.53 0.56 0.61 0.67 0.73 0.78 0.72 0.54 0.36 0.24 0.18 0.12 0.07 0.04 0.02 0.01 0.00 0.00 0.00 0.00 0.00 0.00 0.03 0.10
0.71 0.86 0.82 0.75 0.71 0.70 0.65 0.57 0.49 0.45 0.45 0.43 0.42 0.47 0.52 0.54 0.55 0.60 0.63 0.67 0.68 0.60 0.43 0.28 0.17 0.11 0.07 0.04 0.01 0.00 0.00 0.00 0.00 0.00 0.00 0.00 0.01 0.02
0.63 0.72 0.72 0.69 0.67 0.67 0.63 0.58 0.53 0.52 0.52 0.51 0.48 0.48 0.52 0.52 0.50 0.50 0.54 0.54 0.57 0.58 0.52 0.34 0.19 0.10 0.06 0.04 0.02 0.01 0.00 0.00 0.00 0.00 0.00 0.00 0.00 0.00
0.59 0.62 0.64 0.62 0.61 0.63 0.61 0.60 0.58 0.57 0.54 0.53 0.53 0.50 0.50 0.52 0.48 0.45 0.47 0.52 0.49 0.49 0.46 0.35 0.24 0.17 0.11 0.08 0.05 0.02 0.01 0.00 0.00 0.00 0.00 0.00 0.00 0.00
0.58 0.55 0.58 0.60 0.61 0.59 0.58 0.59 0.60 0.59 0.55 0.52 0.54 0.53 0.49 0.49 0.47 0.44 0.42 0.43 0.40 0.39 0.38 0.36 0.34 0.28 0.18 0.11 0.06 0.04 0.02 0.01 0.00 0.00 0.00 0.00 0.00 0.00
0.54 0.53 0.52 0.50 0.51 0.52 0.51 0.51 0.53 0.54 0.51 0.49 0.49 0.51 0.49 0.48 0.45 0.43 0.40 0.37 0.37 0.39 0.44 0.46 0.45 0.37 0.25 0.17 0.09 0.06 0.04 0.02 0.01 0.00 0.00 0.00 0.00 0.00

GEFSNE_prec_meanprecacc_066.txt.gz
Total_Precipitation_Accumulation
0.63 0.76 0.82 0.78 0.78 0.83 0.89 0.93 0.97 0.93 0.92 0.89 0.78 0.71 0.69 0.65 0.57 0.49 0.34 0.27 0.25 0.23 0.21 0.19 0.19 0.21 0.23 0.26 0.30 0.35 0.41 0.48 0.57 0.70 0.86 1.03 1.16 1.32
0.78 0.87 0.91 0.95 0.93 0.87 0.91 0.95 0.97 1.03 1.00 0.84 0.76 0.77 0.68 0.51 0.47 0.40 0.31 0.31 0.28 0.25 0.23 0.21 0.19 0.21 0.21 0.20 0.18 0.19 0.21 0.24 0.27 0.33 0.44 0.57 0.71 0.88
0.91 1.01 1.05 1.10 1.10 1.00 0.95 0.93 0.93 1.01 0.96 0.82 0.76 0.77 0.65 0.49 0.41 0.35 0.30 0.28 0.25 0.26 0.23 0.20 0.19 0.19 0.20 0.19 0.16 0.14 0.14 0.15 0.17 0.20 0.24 0.31 0.36 0.44
0.94 1.10 1.18 1.14 1.05 0.99 0.99 0.96 0.95 1.03 0.98 0.90 0.87 0.81 0.73 0.62 0.51 0.43 0.33 0.28 0.24 0.28 0.25 0.21 0.19 0.17 0.16 0.15 0.14 0.12 0.12 0.12 0.12 0.13 0.16 0.20 0.22 0.23
0.95 0.99 1.02 1.08 1.06 0.98 0.92 0.91 0.91 1.02 1.01 0.93 1.00 0.98 0.87 0.75 0.61 0.49 0.40 0.34 0.27 0.25 0.26 0.24 0.21 0.16 0.14 0.13 0.12 0.11 0.10 0.10 0.11 0.11 0.13 0.17 0.18 0.19
0.81 0.85 0.89 0.92 0.97 1.01 0.96 0.91 0.94 0.96 0.98 0.97 1.03 1.17 1.07 0.90 0.70 0.57 0.46 0.39 0.34 0.24 0.23 0.26 0.24 0.18 0.15 0.13 0.11 0.10 0.09 0.09 0.09 0.10 0.09 0.11 0.17 0.23
0.53 0.54 0.66 0.82 0.92 0.97 0.94 0.91 0.94 0.94 0.94 1.00 1.05 1.19 1.22 1.04 0.79 0.59 0.48 0.43 0.38 0.32 0.24 0.19 0.17 0.14 0.12 0.12 0.12 0.10 0.07 0.07 0.07 0.07 0.07 0.09 0.14 0.25
0.36 0.34 0.35 0.48 0.67 0.80 0.83 0.83 0.88 0.92 0.95 0.96 1.04 1.13 1.19 1.09 0.89 0.73 0.57 0.44 0.41 0.37 0.34 0.27 0.17 0.15 0.11 0.08 0.09 0.09 0.07 0.06 0.05 0.05 0.06 0.06 0.08 0.18
0.32 0.30 0.24 0.23 0.36 0.49 0.60 0.67 0.70 0.71 0.79 0.93 1.04 1.06 1.16 1.18 1.07 0.88 0.73 0.58 0.43 0.36 0.34 0.34 0.25 0.15 0.11 0.11 0.11 0.08 0.07 0.06 0.05 0.07 0.07 0.05 0.04 0.06
0.30 0.28 0.25 0.25 0.27 0.32 0.42 0.51 0.57 0.57 0.57 0.67 0.84 1.03 1.18 1.30 1.24 1.13 1.00 0.84 0.66 0.50 0.38 0.34 0.29 0.20 0.14 0.12 0.11 0.08 0.06 0.05 0.05 0.10 0.20 0.22 0.12 0.07
0.30 0.28 0.27 0.23 0.21 0.22 0.30 0.37 0.42 0.51 0.54 0.58 0.70 0.93 1.11 1.26 1.39 1.31 1.15 0.93 0.75 0.59 0.42 0.30 0.24 0.21 0.18 0.13 0.11 0.10 0.07 0.05 0.05 0.08 0.23 0.47 0.53 0.34
0.39 0.37 0.29 0.25 0.20 0.17 0.23 0.31 0.34 0.37 0.44 0.50 0.58 0.74 0.92 1.04 1.18 1.17 1.01 0.87 0.69 0.56 0.41 0.27 0.21 0.17 0.17 0.15 0.10 0.08 0.06 0.05 0.05 0.09 0.27 0.60 0.72 0.63
0.45 0.43 0.38 0.27 0.21 0.17 0.18 0.26 0.28 0.34 0.41 0.46 0.55 0.70 0.87 1.03 1.04 1.03 0.98 0.80 0.65 0.47 0.33 0.26 0.21 0.15 0.10 0.09 0.08 0.07 0.05 0.03 0.03 0.06 0.15 0.41 0.68 0.71
0.61 0.56 0.51 0.38 0.25 0.22 0.19 0.20 0.22 0.27 0.42 0.46 0.51 0.62 0.75 0.91 1.00 1.03 1.00 0.86 0.68 0.55 0.42 0.32 0.23 0.15 0.09 0.05 0.05 0.06 0.06 0.04 0.04 0.05 0.06 0.16 0.33 0.62
0.71 0.70 0.59 0.46 0.36 0.29 0.27 0.25 0.23 0.24 0.35 0.44 0.44 0.48 0.55 0.68 0.93 1.13 1.20 1.10 0.86 0.66 0.57 0.44 0.29 0.20 0.13 0.08 0.06 0.05 0.04 0.04 0.04 0.06 0.08 0.10 0.21 0.40
0.69 0.72 0.64 0.59 0.52 0.43 0.38 0.35 0.30 0.27 0.31 0.39 0.44 0.49 0.59 0.70 0.87 1.06 1.21 1.18 1.01 0.75 0.59 0.50 0.37 0.25 0.18 0.11 0.06 0.04 0.03 0.03 0.03 0.04 0.07 0.13 0.23 0.32
0.81 0.92 0.87 0.78 0.71 0.63 0.55 0.49 0.44 0.38 0.35 0.41 0.52 0.57 0.65 0.68 0.77 0.88 1.04 1.09 0.94 0.72 0.55 0.49 0.45 0.35 0.26 0.18 0.10 0.05 0.03 0.01 0.01 0.01 0.01 0.05 0.16 0.21
0.84 1.01 0.96 0.86 0.80 0.75 0.69 0.62 0.56 0.50 0.45 0.44 0.50 0.58 0.62 0.65 0.71 0.79 0.86 0.93 0.89 0.73 0.57 0.44 0.40 0.37 0.30 0.24 0.16 0.08 0.03 0.01 0.01 0.00 0.00 0.01 0.03 0.10
0.73 0.88 0.87 0.82 0.79 0.80 0.75 0.67 0.59 0.57 0.58 0.55 0.52 0.57 0.62 0.64 0.65 0.73 0.76 0.82 0.85 0.81 0.66 0.50 0.38 0.31 0.27 0.20 0.13 0.08 0.04 0.02 0.01 0.00 0.00 0.00 0.01 0.02
0.64 0.75 0.77 0.75 0.74 0.76 0.73 0.70 0.65 0.66 0.66 0.62 0.59 0.59 0.64 0.64 0.61 0.63 0.68 0.68 0.73 0.76 0.73 0.56 0.40 0.30 0.22 0.16 0.12 0.07 0.04 0.03 0.02 0.01 0.00 0.00 0.00 0.00
0.63 0.66 0.69 0.68 0.68 0.72 0.72 0.72 0.70 0.70 0.68 0.66 0.65 0.63 0.64 0.66 0.60 0.57 0.62 0.66 0.64 0.65 0.63 0.54 0.42 0.38 0.31 0.23 0.18 0.13 0.07 0.04 0.04 0.03 0.01 0.00 0.00 0.00
0.63 0.60 0.64 0.66 0.68 0.67 0.69 0.70 0.71 0.71 0.68 0.64 0.66 0.66 0.63 0.63 0.59 0.56 0.56 0.59 0.56 0.54 0.54 0.57 0.56 0.50 0.41 0.31 0.20 0.16 0.12 0.07 0.05 0.05 0.03 0.01 0.00 0.00
0.59 0.58 0.58 0.57 0.58 0.59 0.60 0.61 0.65 0.65 0.62 0.59 0.61 0.64 0.62 0.60 0.57 0.56 0.54 0.52 0.53 0.57 0.61 0.66 0.68 0.58 0.45 0.36 0.25 0.19 0.17 0.13 0.07 0.04 0.03 0.02 0.01 0.00